Regional Weather Roundup
Issued by NWS

Home | Current Version | Previous Version | Graphics & Text | Print | Product List | Glossary On
Versions: 1 2 3 4 5 6 7 8 9 10 11 12 13 14 15 16 17 18 19 20 21 22 23 24 25 26 27 28
000
ASUS45 KSLC 281310
RWRUT

UTAH REGIONAL WEATHER ROUNDUP
NATIONAL WEATHER SERVICE SALT LAKE CITY UT
700 AM MDT SAT MAY 28 2016

UTZ001>011-023>025-281400-

NORTHERN UTAH

CITY           SKY/WX    TMP DP  RH WIND       PRES   REMARKS
BRIGHAM CITY     N/A     48  42  82 CALM      30.03R
HILL AFB       PTCLDY    49  41  74 E8        30.02S
LOGAN          PTCLDY    42  42 100 CALM      30.05R
OGDEN          PTCLDY    50  43  77 CALM      30.02R
PROVO AIRPORT  PTCLDY    48  37  66 CALM      30.03R
SALT LAKE CITY PTCLDY    55  45  68 CALM      30.02R
VERNAL         PTSUNNY   47  37  68 CALM      30.06R
WENDOVER       CLOUDY    54  36  50 CALM      30.03R
HEBER CITY     CLEAR     37  36  93 SE6       30.07R WCI  33
WEST JORDAN    CLEAR     46  45  93 CALM      30.03R

$$

UTZ012>022-026-027-281400-

SOUTHERN/CENTRAL UTAH

CITY           SKY/WX    TMP DP  RH WIND       PRES   REMARKS
BLANDING       SUNNY     48  33  56 NE7       30.15R
BRYCE CANYON   PTCLDY    35  29  78 W7        30.14R WCI  29
CEDAR CITY     CLOUDY    44  34  67 SW5       30.01R
DELTA          CLOUDY    52  39  62 CALM      30.01R
HANKSVILLE     CLEAR     46  34  61 CALM      30.04R
MILFORD        PTCLDY    46  32  58 CALM      30.01R
MOAB/CYNLANDS  SUNNY     54  40  59 SE6       30.01R
PRICE          CLOUDY    48  31  51 NW3       30.06R
ST GEORGE      SUNNY     59  27  29 S5        29.93R
KANAB          CLEAR     46  34  61 NW8       30.06

$$

REGIONAL REPORTS     COLORADO/ARIZONA

CITY           SKY/WX    TMP DP  RH WIND       PRES   REMARKS
CRAIG, CO      CLOUDY    40  37  89 CALM      30.10R
GRAND JUNCTION SUNNY     47  41  80 SE5       30.06R
RIFLE          SUNNY     40  34  79 CALM      30.12R
MONTROSE       SUNNY     45  33  63 SE9       30.12R
CORTEZ         MOSUNNY   40  31  70 NE3       30.10R
PAGE, AZ       CLEAR     58  32  37 CALM      29.98R
GRAND CANYON   CLEAR     36  24  62 E5        30.10R WCI  32
KINGMAN        CLEAR     62  29  28 SE13      29.91R
FLAGSTAFF      CLEAR     34  27  75 CALM      30.11R

$$

REGIONAL REPORTS    NEVADA/IDAHO/WYOMING

CITY           SKY/WX    TMP DP  RH WIND       PRES   REMARKS
LAS VEGAS, NV  PTCLDY    71  32  23 W5        29.78R
ELY            PTCLDY    37  31  78 S5        30.08R WCI  33
ELKO           CLEAR     41  35  79 CALM      30.06R
POCATELLO, ID  CLEAR     43  30  60 SW9       30.05R
BURLEY         CLEAR     42  31  64 SW8       30.05R
EVANSTON, WY   CLOUDY    40  34  79 SW10      30.08R WCI  33
ROCK SPRINGS   SUNNY     44  35  70 SW12      30.07R
KEMMERER         N/A     39  34  81 N5        30.10R

$$




USA.gov is the U.S. government's official web portal to all federal, state and local government web resources and services.